Погода в Кличеве

Погода в Кличеве : погода сейчас, прогноз погоды и архив. Всё, что Вы хотите узнать о погоде в Кличеве!

Хотите узнать прогноз погоды в Кличеве? Тогда Вам сюда: Погода в Кличеве

Поиск расширенной информации на нашем сайте:

Другие новости

Новости СМИ2

Главная страница сайта

Новости сайта

03.07.2017

Напоминаем, что на нашем специализированном сайте Метеоцентр.Азия вы можете получить высокодетализированные автоматические прогнозы погоды по пунктам России, СНГ и мира в авиационном формате (включающие направление и скорость ветра, видимость, явления погоды, количество и форму облачности, нижнюю и верхнюю границу облачности).


Погода в Кличеве - сегодня

Время (UTC), дата Ветер
(°,м/с) 
Видим.   Явления Облачность Т
(°С)
Тd
(°С)
f(%) Тe
(°С)
Pmin
(гПа)
dP
(гПа)
Po
(мм)
O2
(г/м3)
Тmin Tmax R s Состояние
почвы
09 11.12.17 150 (ЮВ) 4000 м  дымка  9/0 средняя 
[Ac und]
-2 -2.4 97 -4  1004.2  0.2  739  300           
12 11.12.17 150 (ЮВ) 4000 м  дымка  8/0 средняя 
[Ac und]
-1 -1.6 96 -2  1004.2  0.1  739  299           
18 11.12.17 160 (Ю) 4000 м  дымка{ливн. осадки}  10/10 720 м кучево-дожд. 
[Cb calv]
-0.4 -1 96 -1  1006.5  1.1  740  299    -0.4  0.9   
21 11.12.17 150 (ЮВ) 4000 м  дымка  9/9 840 м 
[Sc]
-0.7 -1.3 96 -2  1006.7  0.2  741  299           
00 12.12.17 140 (ЮВ) 4000 м  дымка  9/9 900 м 
[Sc]
-1 -1.6 96 -3  1006.6  -0.2  740  300           
03 12.12.17 130 (ЮВ) 4000 м  дымка  9/9 840 м 
[Sc]
-0.8 -1.4 96 -3  1005.5  -1  740  299         
06 12.12.17 140 (ЮВ) 4000 м  дымка  9/9 840 м 
[Sc]
+0.2 -0.5 95 -2  1005.1  -0.3  739  298  -1      равномерный
сухой снег
100% 
09 12.12.17 140 (ЮВ) 4000 м  дымка  9/9 840 м 
[Sc]
+1.4 +0.5 94 1004.3  -0.7  739  296           
12 12.12.17 170 (Ю) 4000 м  дымка  9/4 600 м средняя 
[Sc|Ac und]
+1.8 +0.5 91 +1  1003.9  -0.4  739  296           
15 12.12.17 170 (Ю) 4000 м  дымка  9/0 средняя 
[Ac As]
+2.6 +1.6 93 +2  1004.7  0.8  739  295           
18 12.12.17 170 (Ю) 4000 м  дымка  9/0 средняя 
[Ac As]
+2.8 +1.9 94 +1  1005.5  0.8  740  295    +3.1     
21 12.12.17 220 (ЮЗ) 4000 м  дымка  8/0 средняя 
[Ac und]
+3.4 +2.7 95 +2  1007.1  1.7  741  294           
00 13.12.17 230 (ЮЗ) 4000 м  дымка  6/0 средняя 
[Ac und]
+4 +3.3 95 +2  1008.3  1.2  742  294           
03 13.12.17 270 (З) 10 км    9/0 средняя 
[Ac und]
+4.3 +2.2 86 +3  1009.8  1.5  743  294         
06 13.12.17 260 (З) 10 км    9/9 900 м 
[Sc]
+3 -0.8 76 +2  1011.9  1.9  745  297  +2.6      мокрый или
старый снег
50-90% 
09 13.12.17 240 (ЮЗ) 10 км    9/9 900 м 
[Sc]
+2.8 -1 76 +1  1013.7  1.8  746  298           
12 13.12.17 260 (З) 10 км    9/9 900 м 
[Sc]
+2.8 -1 76 +1  1013.9  0.2  746  298           
15 13.12.17 260 (З) 10 км    9/9 900 м 
[Sc]
+1.1 -1.6 82 1014.6  0.5  746  300           
18 13.12.17 230 (ЮЗ) 4000 м  дымка  ясно 
-1.8 -2.9 92 -1  1014.8  746  303    +3.2     
21 13.12.17 тихо ()   4000 м  дымка  ясно 
-3.5 -4.3 94 -4  1014.4  -0.5  746  305           
00 14.12.17 тихо ()   4000 м  дымка  ясно 
-4.4 -5 96 -4  1013  -1.4  745  306           
03 14.12.17 170 (Ю) 4000 м  дымка  9/9 900 м 
[Sc]
-4.2 -5.1 93 -4  1011.3  -1.7  744  305         
06 14.12.17 тихо ()   4000 м  дымка [диам. изморози 2 мм]  9/6 840 м средняя 
[Sc|Ac und]
-4.8 -5.2 97 -5  1009.1  -2.2  742  305  -5.9      мокрый или
старый снег
10-40% 
09 14.12.17 150 (ЮВ) 4000 м  дымка [диам. изморози 2 мм]  9/9 900 м 
[Sc]
-1.1 -1.5 97 -1  1007.1  -1.7  741  300           
12 14.12.17 160 (Ю) 4000 м  дымка [диам. изморози 0 мм]  9/9 900 м 
[Sc]
+0.4 -0.2 96 -1  1004.2  -2.7  739  297           
Время (UTC), дата Ветер
(°,м/с) 
Видим.   Явления Облачность Т
(°С)
Тd
(°С)
f(%) Тe
(°С)
Pmin
(гПа)
dP
(гПа)
Po
(мм)
O2
(г/м3)
Тmin Tmax R s Состояние
почвы

Для получения пояснительной информации подведите курсор к названию столбца.

ПОГОДА в Кличеве - архив

Всё, что Вы хотите узнать о погоде в Кличеве - удобно и подробно!

Выберите нужную дату (начиная с 1 января 2015* года) и нажмите кнопку "Найти".
Будут отображены архивные сводки погоды по пункту Кличев, начиная с указанной даты.


Отображать данные в формате CSV (для использования в таблицах Excel)


Внимание! Наш архив погоды предназначен исключительно для личного некоммерческого использования в познавательных целях. Если Вам необходимы официальные справки о состоянии погоды (для производственных, юридических, коммерческих и т.п. целей), обращайтесь в органы Росгидромета.

*Примечание: данная дата относится к архиву по метеостанциям СССР (Россия, СНГ, Балтия).
Архив по метеостанциям Зарубежной Европы и Азии (кроме Китая) хранится 10 дней, по другим регионам земного шара (Китай, Африка, Америка, Австралия, Океания) - 1 день.

Кличев - район местоположения метеостанции


Название, широта, долгота, высота метеостанции:
Кличев 53.5°ш. 29.3°д. 155 м над ур. моря [Беларусь]

Дополнительная информация

В oтличие oт бoльшинства пoгoдных сайтoв мы публикуем пoдрoбную метеoинфoрмацию в детальнoм прoфессиoнальнoм фoрмате.

Характеристики температуры и влажнoсти вoздуха измеряются на высoте 2 м в тени вдали oт зданий и деревьев.
Скoрoсть ветра измеряется на высoте 10 м (на урoвне рoста челoвека скoрoсть ветра ниже в 1.5-2 раза). Если метеoстанция нахoдится в гoрoде или в лесу, тo скoрoсть ветра занижена на 2-4 м/с пo сравнению с oткрытым местoм. Скoрoсть ветра над акватoриями крупных рек и oзёр, а также на вершинах хoлмoв на 2-5 м/с выше, чем в oбычных услoвиях.
Атмoсфернoе давление в разных тoчках местнoсти мoжет значительнo oтличаться oт давления на метеoстанции, в зависимoсти oт услoвий рельефа (при пoдъёме на 10 м давление пoнижается примернo на 1 мм рт.ст.).